Weather History for KSLK - March, 2012

Change the Weather History Date:

Tuesday, March 20, 2012

  Actual Average Record
Temperature  
Mean Temperature 54 °F 26 °F  
Max Temperature 75 °F 38 °F 75 °F (2012)
Min Temperature 33 °F 14 °F -13 °F (1949)
Degree Days  
Heating Degree Days 11 39  
Month to date heating degree days 597 859  
Since 1 July heating degree days 6345 7564  
Cooling Degree Days 0 0  
Month to date cooling degree days 0 0  
Year to date cooling degree days 0 0  
Growing Degree Days 4 (Base 50)    
Moisture  
Dew Point 40 °F    
Average Humidity 69    
Maximum Humidity 100    
Minimum Humidity 38    
Precipitation  
Precipitation 0.00 in 0.09 in 0.90 in (1975)
Month to date precipitation 1.31 1.33  
Year to date precipitation 5.00 5.07  
Sea Level Pressure  
Sea Level Pressure 30.24 in    
Wind  
Wind Speed 3 mph (West)    
Max Wind Speed 12 mph    
Max Gust Speed 15 mph    
Visibility 4 miles    
Events Fog    
T = Trace of Precipitation, MM = Missing Value Source: NWS Daily Summary

Daily Weather History Graph

Daily Weather History Graph

Search for Another Location

Airport or City:

Trip Planner

Search our weather history database for the weather conditions in past years. The results will help you decide how hot, cold, wet, or windy it might be!

Date:

Astronomy

Mar. 20, 2012 Rise Set
Actual Time 6:59 AM EDT 7:09 PM EDT
Civil Twilight 6:30 AM EDT 7:38 PM EDT
Nautical Twilight 5:56 AM EDT 8:12 PM EDT
Astronomical Twilight 5:21 AM EDT 8:47 PM EDT
Moon 5:43 AM EDT (3/20) 5:33 PM EDT (3/20)
Length of Visible Light 13h 08m
Length of Day
12h 10m
Waning Crescent, 4% of the Moon is Illuminated
Mar 20
Waning Crescent
Mar 22
New
Mar 30
First Quarter
Apr 6
Full
Apr 13
Last Quarter

Hourly Weather History & Observations

Time (EDT) Temp. Windchill Dew Point Humidity Pressure Visibility Wind Dir Wind Speed Gust Speed Precip Events Conditions
12:18 AM 39.2 °F - 37.4 °F 93% 30.21 in 0.2 mi Calm Calm - N/A Fog Fog
12:34 AM 39.2 °F - 37.4 °F 93% 30.21 in 0.5 mi Calm Calm - N/A Fog Fog
12:51 AM 39.9 °F - 39.0 °F 97% 30.22 in 0.2 mi Calm Calm - N/A Fog Fog
1:03 AM 37.4 °F - 37.4 °F 100% 30.21 in 1.0 mi Calm Calm - N/A   Overcast
1:11 AM 37.4 °F - 37.4 °F 100% 30.21 in 0.8 mi Calm Calm - N/A   Overcast
1:30 AM 37.4 °F - 37.4 °F 100% 30.21 in 2.0 mi Calm Calm - N/A   Overcast
1:37 AM 37.4 °F - 37.4 °F 100% 30.21 in 4.0 mi Calm Calm - N/A   Overcast
1:51 AM 39.0 °F - 37.0 °F 93% 30.22 in 5.0 mi Calm Calm - N/A   Overcast
2:07 AM 39.2 °F - 37.4 °F 93% 30.21 in 1.5 mi Calm Calm - N/A   Overcast
2:15 AM 39.2 °F - 39.2 °F 100% 30.21 in 0.2 mi Calm Calm - N/A Fog Fog
2:51 AM 37.9 °F - 37.0 °F 97% 30.22 in 0.2 mi Calm Calm - N/A Fog Fog
2:57 AM 37.4 °F - 37.4 °F 100% 30.21 in 1.0 mi Calm Calm - N/A   Mist
3:05 AM 37.4 °F - 35.6 °F 93% 30.21 in 3.0 mi Calm Calm - N/A   Overcast
3:19 AM 35.6 °F - 35.6 °F 100% 30.21 in 1.8 mi Calm Calm - N/A   Overcast
3:51 AM 36.0 °F - 35.1 °F 97% 30.23 in 0.2 mi Calm Calm - N/A Fog Fog
4:04 AM 35.6 °F - 35.6 °F 100% 30.22 in 0.5 mi Calm Calm - N/A Fog Fog
4:17 AM 37.4 °F - 35.6 °F 93% 30.22 in 1.8 mi Calm Calm - N/A   Overcast
4:30 AM 35.6 °F - 35.6 °F 100% 30.22 in 0.2 mi Calm Calm - N/A Fog Fog
4:51 AM 35.1 °F 32.2 °F 34.0 °F 96% 30.23 in 0.2 mi NNE 3.5 mph - N/A Fog Fog
5:31 AM 35.6 °F - 33.8 °F 93% 30.23 in 0.8 mi Calm Calm - N/A   Mist
5:51 AM 34.0 °F - 34.0 °F 100% 30.25 in 0.5 mi Calm Calm - N/A Fog Fog
6:13 AM 33.8 °F - 32.0 °F 93% 30.23 in 0.2 mi Calm Calm - N/A Fog Fog
6:26 AM 33.8 °F - 33.8 °F 100% 30.24 in 1.0 mi Calm Calm - N/A   Mist
6:31 AM 33.8 °F - 32.0 °F 93% 30.24 in 3.0 mi Calm Calm - N/A   Mostly Cloudy
6:51 AM 34.0 °F - 33.1 °F 96% 30.26 in 4.0 mi Calm Calm - N/A   Mostly Cloudy
7:07 AM 33.8 °F - 32.0 °F 93% 30.25 in 1.8 mi Calm Calm - N/A   Overcast
7:28 AM 33.8 °F - 33.8 °F 100% 30.26 in 2.0 mi Calm Calm - N/A   Overcast
7:39 AM 35.6 °F - 33.8 °F 93% 30.26 in 3.0 mi Calm Calm - N/A   Overcast
7:46 AM 35.6 °F - 33.8 °F 93% 30.26 in 1.8 mi Calm Calm - N/A   Overcast
7:51 AM 36.0 °F - 35.1 °F 97% 30.29 in 0.8 mi Calm Calm - N/A   Mist
7:59 AM 35.6 °F - 35.6 °F 100% 30.26 in 2.5 mi Calm Calm - N/A   Overcast
8:06 AM 37.4 °F - 37.4 °F 100% 30.27 in 3.0 mi Calm Calm - N/A   Overcast
8:41 AM 44.6 °F - 42.8 °F 93% 30.27 in 4.0 mi Calm Calm - N/A   Scattered Clouds
8:51 AM 46.9 °F - 45.0 °F 93% 30.30 in 6.0 mi Calm Calm - N/A   Partly Cloudy
9:51 AM 57.2 °F - 50.0 °F 77% 30.28 in 10.0 mi Calm Calm - N/A   Clear
10:51 AM 63.0 °F - 50.0 °F 63% 30.29 in 10.0 mi WSW 9.2 mph - N/A   Clear
11:51 AM 68.0 °F - 51.1 °F 55% 30.28 in 10.0 mi WSW 6.9 mph - N/A   Clear
12:51 PM 70.0 °F - 50.0 °F 49% 30.27 in 10.0 mi Variable 5.8 mph - N/A   Clear
1:51 PM 73.0 °F - 50.0 °F 44% 30.25 in 10.0 mi West 6.9 mph - N/A   Clear
2:51 PM 73.0 °F - 48.0 °F 41% 30.23 in 10.0 mi West 5.8 mph - N/A   Clear
3:51 PM 75.0 °F - 48.0 °F 38% 30.21 in 10.0 mi Variable 4.6 mph - N/A   Clear
4:51 PM 73.9 °F - 48.0 °F 40% 30.21 in 10.0 mi WSW 3.5 mph - N/A   Clear
5:51 PM 73.0 °F - 48.0 °F 41% 30.21 in 10.0 mi WSW 6.9 mph - N/A   Clear
6:51 PM 66.9 °F - 48.0 °F 51% 30.22 in 10.0 mi WSW 3.5 mph - N/A   Clear
7:51 PM 57.0 °F - 48.0 °F 72% 30.25 in 10.0 mi Calm Calm - N/A   Clear
8:51 PM 51.1 °F - 46.9 °F 86% 30.27 in 10.0 mi Calm Calm - N/A   Scattered Clouds
9:51 PM 46.0 °F 44.8 °F 43.0 °F 89% 30.28 in 10.0 mi NNE 3.5 mph - N/A   Clear
10:51 PM 45.0 °F - 42.1 °F 90% 30.29 in 10.0 mi Calm Calm - N/A   Clear
11:51 PM 42.1 °F - 39.9 °F 92% 30.29 in 9.0 mi Calm Calm - N/A   Clear